This demonstration page uses our WeatherBlox Daily Observations layout. Learn more.

40.92945, -100.16068

Hourly Observations for May 8, 2017

Temp ( °F °C ) Dew Point ( °F °C ) Humidity (%) Winds ( mph kmh ) Pressure ( in mb ) Visibility ( mi km ) Precip ( " mm )
12:15 am 00:15 Clear 70 21.3 50 9.9 48 48 S 13 20 29.68 1005 10 16.09344 0 0
12:35 am 00:35 Clear 71 21.5 50 10 48 48 S 13 20 29.68 1005 10 16.09344 0 0
12:55 am 00:55 Clear 71 21.8 50 10 47 47 SW 18 30 29.71 1006 10 16.09344 0 0
1:15 am 01:15 Clear 71 21.7 49 9.6 46 46 WSW 14 22 29.71 1006 10 16.09344 0 0
1:35 am 01:35 Clear 69 20.4 49 9.7 50 50 WSW 8 13 29.74 1007 10 16.09344 0 0
1:55 am 01:55 Clear 67 19.6 49 9.7 53 53 W 6 9 29.74 1007 10 16.09344 0 0
2:15 am 02:15 Clear 65 18.5 50 10 58 58 SW 6 9 29.74 1007 10 16.09344 0 0
2:35 am 02:35 Clear 63 17.1 51 10.5 65 65 SSE 5 7 29.77 1008 10 16.09344 0 0
2:55 am 02:55 Clear 62 16.6 51 10.3 67 67 S 5 7 29.77 1008 10 16.09344 0 0
3:15 am 03:15 Clear 61 16.1 51 10.5 70 70 S 7 11 29.77 1008 10 16.09344 0 0
3:35 am 03:35 Clear 61 16.2 51 10.5 69 69 SSE 8 13 29.74 1007 10 16.09344 0 0
3:55 am 03:55 Clear 62 16.8 51 10.5 67 67 Calm 29.77 1008 10 16.09344 0 0
4:15 am 04:15 Clear 62 16.5 51 10.5 68 68 SSW 6 9 29.77 1008 10 16.09344 0 0
4:35 am 04:35 Clear 61 16 50 10.2 69 69 SSW 8 13 29.77 1008 10 16.09344 0 0
4:55 am 04:55 Clear 61 15.9 50 10 68 68 SW 7 11 29.77 1008 10 16.09344 0 0
5:15 am 05:15 Clear 59 15.2 50 10 71 71 S 7 11 29.77 1008 10 16.09344 0 0
5:35 am 05:35 Clear 60 15.4 51 10.5 73 73 S 6 9 29.77 1008 10 16.09344 0 0
5:55 am 05:55 Clear 59 15 51 10.5 75 75 SSE 7 11 29.77 1008 10 16.09344 0 0
6:15 am 06:15 Clear 59 15.2 50 10.2 72 72 S 5 7 29.77 1008 10 16.09344 0 0
6:35 am 06:35 Sunny 60 15.8 50 10 69 69 WNW 3 6 29.77 1008 10 16.09344 0 0
6:55 am 06:55 Sunny 58 14.3 50 9.8 75 75 Calm 29.83 1010 10 16.09344 0 0
7:15 am 07:15 Sunny 56 13.6 50 10 79 79 SE 8 13 29.83 1010 10 16.09344 0 0
7:35 am 07:35 Sunny 59 15.2 52 11 76 76 Calm 29.85 1011 10 16.09344 0 0
7:55 am 07:55 Sunny 58 14.6 53 11.5 82 82 Calm 29.85 1011 10 16.09344 0 0
8:15 am 08:15 Sunny 61 16.3 53 11.7 74 74 SW 5 7 29.83 1010 10 16.09344 0 0
8:35 am 08:35 Sunny 64 17.7 53 11.5 67 67 SW 3 6 29.83 1010 10 16.09344 0 0
8:55 am 08:55 Sunny 67 19.2 54 12.1 64 64 SSW 5 7 29.8 1009 10 16.09344 0 0
9:15 am 09:15 Sunny 69 20.7 54 12.2 58 58 W 9 15 29.83 1010 10 16.09344 0 0
9:35 am 09:35 Sunny 71 21.8 54 12.4 55 55 WSW 6 9 29.8 1009 10 16.09344 0 0
9:55 am 09:55 Sunny 74 23.5 55 13 52 52 W 6 9 29.8 1009 10 16.09344 0 0
10:15 am 10:15 Sunny 76 24.4 52 11.1 43 43 WSW 7 11 29.8 1009 10 16.09344 0 0
10:35 am 10:35 Sunny 78 25.4 50 10 38 38 WSW 6 9 29.8 1009 10 16.09344 0 0
10:55 am 10:55 Sunny 79 25.9 50 9.9 37 37 WSW 6 9 29.8 1009 10 16.09344 0 0
11:15 am 11:15 Sunny 78 25.8 49 9.3 35 35 SW 5 7 29.8 1009 10 16.09344 0 0
11:35 am 11:35 Sunny 79 26.3 51 10.4 37 37 Calm 29.77 1008 10 16.09344 0 0
11:55 am 11:55 Sunny 80 26.7 49 9.7 34 34 WSW 5 7 29.77 1008 10 16.09344 0 0
12:15 pm 12:15 Sunny 81 27 49 9.5 33 33 Calm 29.77 1008 10 16.09344 0 0
12:35 pm 12:35 Sunny 81 27.3 49 9.3 32 32 WSW 5 7 29.77 1008 10 16.09344 0 0
12:55 pm 12:55 Sunny 81 27.3 49 9.3 32 32 WSW 5 7 29.77 1008 10 16.09344 0 0
1:15 pm 13:15 Sunny 82 27.7 50 10.1 33 33 WSW 3 6 29.77 1008 10 16.09344 0 0
1:35 pm 13:35 Sunny 83 28.2 50 10 32 32 NW 5 7 29.77 1008 10 16.09344 0 0
1:55 pm 13:55 Sunny 83 28.4 51 10.7 33 33 WSW 7 11 29.77 1008 10 16.09344 0 0
2:15 pm 14:15 Sunny 83 28.5 51 10.5 33 33 Calm 29.77 1008 10 16.09344 0 0
2:35 pm 14:35 Sunny 84 28.9 48 9.1 29 29 Calm 29.77 1008 10 16.09344 0 0
2:55 pm 14:55 Sunny 84 28.8 50 10 31 31 Calm 29.77 1008 10 16.09344 0 0
3:15 pm 15:15 Sunny 84 29 51 10.7 32 32 Calm 29.77 1008 10 16.09344 0 0
3:35 pm 15:35 Mostly Cloudy 85 29.5 51 10.3 30 30 W 3 6 29.77 1008 10 16.09344 0 0
3:55 pm 15:55 Mostly Cloudy 84 28.8 51 10.7 32 32 ESE 3 6 29.74 1007 10 16.09344 0 0
4:15 pm 16:15 Cloudy 82 27.9 57 13.9 42 42 E 5 7 29.74 1007 10 16.09344 0 0
4:35 pm 16:35 Cloudy 83 28.4 50 9.8 31 31 N 3 6 29.74 1007 10 16.09344 0 0
4:55 pm 16:55 Partly Cloudy 84 29 50 10.2 31 31 NE 3 6 29.74 1007 10 16.09344 0 0
5:15 pm 17:15 Sunny 83 28.2 54 12.1 37 37 NE 9 15 29.74 1007 10 16.09344 0 0
5:35 pm 17:35 Sunny 82 27.5 55 12.6 40 40 NNE 9 15 29.74 1007 10 16.09344 0 0
5:55 pm 17:55 Sunny 82 27.7 55 12.9 40 40 NNE 16 26 29.74 1007 10 16.09344 0 0
6:15 pm 18:15 Sunny 81 27.4 56 13.4 42 42 NNE 16 26 29.74 1007 10 16.09344 0 0
6:35 pm 18:35 Sunny 81 27 56 13.3 43 43 NNE 18 30 29.74 1007 10 16.09344 0 0
6:55 pm 18:55 Sunny 79 26.2 56 13.4 45 45 NNE 17 28 29.74 1007 10 16.09344 0 0
7:15 pm 19:15 Sunny 78 25.5 56 13.1 46 46 NNE 17 28 29.77 1008 10 16.09344 0 0
7:35 pm 19:35 Sunny 76 24.3 55 12.9 49 49 NNE 9 15 29.8 1009 10 16.09344 0 0
7:55 pm 19:55 Sunny 74 23.5 55 13 52 52 NNE 10 17 29.8 1009 10 16.09344 0 0
8:15 pm 20:15 Sunny 73 23 54 12.4 51 51 NE 12 19 29.8 1009 10 16.09344 0 0
8:35 pm 20:35 Sunny 72 22.2 54 12.4 54 54 NE 10 17 29.83 1010 10 16.09344 0 0
8:55 pm 20:55 Clear 71 21.4 54 12.3 56 56 NE 9 15 29.85 1011 10 16.09344 0 0
9:15 pm 21:15 Clear 68 20.2 55 12.5 61 61 NNE 8 13 29.85 1011 10 16.09344 0 0
9:35 pm 21:35 Clear 67 19.6 54 12.2 62 62 NE 9 15 29.85 1011 10 16.09344 0 0
9:55 pm 21:55 Clear 68 19.8 53 11.7 60 60 NE 10 17 29.88 1012 10 16.09344 0 0
10:15 pm 22:15 Clear 67 19.3 53 11.5 61 61 NE 10 17 29.91 1013 10 16.09344 0 0
10:35 pm 22:35 Clear 66 18.8 52 11.2 62 62 NE 8 13 29.94 1014 10 16.09344 0 0
10:55 pm 22:55 Clear 66 18.8 53 11.4 62 62 NE 8 13 29.94 1014 10 16.09344 0 0
11:15 pm 23:15 Clear 64 17.9 53 11.5 66 66 ENE 9 15 29.94 1014 10 16.09344 0 0
11:35 pm 23:35 Clear 64 17.7 53 11.5 67 67 ENE 9 15 29.94 1014 10 16.09344 0 0
11:55 pm 23:55 Clear 62 16.9 53 11.6 71 71 E 8 13 29.94 1014 10 16.09344 0 0

Powered by AerisWeather